Location: Pine Mountain Observatory
(43.7910°N, 120.9377°W)
Time: 04:36:20
(UTC-07:00)

Explorer 11/Cluster Stage 4 - Pass Details

Date: 03 June 2019
Orbit: 467 x 1260 km, 28.8° (Epoch: 19 June)

Event Time Altitude Azimuth Distance (km) Brightness Sun altitude
Rises 21:34:06 0° 203° (SSW) 4,125 10.1 -8.5°
Reaches altitude 10° 21:39:04 10° 178° (S) 3,218 9.3 -9.1°
Maximum altitude 21:42:15 13° 155° (SSE) 3,019 9.0 -9.5°
Enters shadow 21:44:16 12° 140° (SE) 3,096 8.9 -9.8°
Drops below altitude 10° 21:45:26 10° 132° (SE) 3,208 - -10.0°
Sets 21:50:20 0° 106° (ESE) 4,102 - -10.6°
